CW0728 Weather Reports


time (UTC)temp
C
wind
direction
speed
KPH
gust
KPH
rain 1hr
cm
rain 24hr
cm
rain mn
cm
humidity
%
barometer
mb
20260903003033 15 90 0.0 0.0 0.00 0.00 0.00 89 1019.0
20260903001506 16 159 0.0 0.0 0.00 0.00 0.00 89 1019.0
20260903000045 16 157 0.0 0.0 0.00 0.00 0.00 88 1019.1
20260902234514 16 148 0.0 0.0 0.00 0.00 0.00 88 1019.5
20260902233056 16 149 0.0 0.0 0.00 0.00 0.00 88 1019.7
20260902231539 16 161 0.0 0.0 0.00 0.00 0.00 87 1019.7
20260902230012 16 198 0.0 0.0 0.00 0.00 0.00 87 1019.6
20260902224548 16 212 0.0 0.0 0.00 0.00 0.00 85 1020.0
20260902223024 17 214 0.0 0.0 0.00 0.00 0.00 83 1020.3
20260902221613 17 90 0.0 0.0 0.00 0.00 0.00 82 1020.1
20260902220037 17 199 0.0 0.0 0.00 0.00 0.00 80 1020.0
20260902214521 18 84 0.0 0.0 0.00 0.00 0.00 78 1020.0
20260902213059 19 146 0.0 0.0 0.00 0.00 0.00 74 1020.2
20260902211533 20 150 0.0 0.0 0.00 0.00 0.00 74 1020.1
20260902210012 19 89 0.0 0.0 0.00 0.00 0.00 77 1020.1
20260902204606 18 116 0.0 0.0 0.00 0.00 0.00 77 1020.5
20260902203022 19 159 0.0 0.0 0.00 0.00 0.00 74 1020.5
20260902201511 20 111 0.0 0.0 0.00 0.00 0.00 75 1020.6
20260902200038 19 100 0.0 0.0 0.00 0.00 0.00 74 1020.8
20260902194524 19 123 0.0 0.0 0.00 0.00 0.00 74 1021.1
20260902193048 19 151 0.0 0.0 0.00 0.00 0.00 73 1021.2
20260902191523 19 103 0.0 0.0 0.00 0.00 0.00 73 1021.2
20260902190055 19 88 0.0 0.0 0.00 0.00 0.00 74 1021.1
20260902184540 19 101 0.0 0.0 0.00 0.00 0.00 73 1021.2
20260902183013 19 111 0.0 0.0 0.00 0.00 0.00 71 1021.2
20260902181549 19 91 0.0 0.0 0.00 0.00 0.00 73 1021.4
20260902180024 19 164 0.0 0.0 0.00 0.00 0.00 70 1021.4
20260902174509 20 98 0.0 0.0 0.00 0.00 0.00 70 1021.3
20260902173054 20 154 0.0 0.0 0.00 0.00 0.00 71 1021.2
20260902171534 20 86 0.0 9.7 0.00 0.00 0.00 71 1021.1
20260902170007 20 126 0.0 0.0 0.00 0.00 0.00 70 1021.2
20260902164557 20 157 0.0 0.0 0.00 0.00 0.00 72 1021.3
20260902163018 20 105 0.0 9.7 0.00 0.00 0.00 72 1021.4
20260902161558 20 184 0.0 11.3 0.00 0.00 0.00 72 1021.7
20260902160036 20 119 0.0 8.0 0.00 0.00 0.00 73 1021.8
20260902154535 20 167 0.0 6.4 0.00 0.00 0.00 72 1021.9
20260902153050 19 146 1.6 6.4 0.00 0.00 0.00 73 1022.0
20260902151538 20 121 0.0 9.7 0.00 0.00 0.00 72 1021.9
20260902150008 19 213 1.6 11.3 0.00 0.00 0.00 73 1021.6
20260902144544 18 141 0.0 0.0 0.00 0.00 0.00 74 1021.6
20260902143017 19 100 0.0 0.0 0.00 0.00 0.00 72 1021.8
20260902141556 19 119 0.0 0.0 0.00 0.00 0.00 74 1021.5
20260902140040 18 113 0.0 0.0 0.00 0.00 0.00 77 1021.2
20260902134512 18 184 0.0 0.0 0.00 0.00 0.00 80 1021.2
20260902133049 18 119 0.0 0.0 0.00 0.00 0.00 84 1021.3
20260902131522 17 117 0.0 0.0 0.00 0.00 0.00 87 1021.4
20260902130019 17 167 0.0 0.0 0.00 0.00 0.00 90 1021.4
20260902124544 16 95 0.0 0.0 0.00 0.00 0.00 93 1021.2
20260902123026 16 98 0.0 0.0 0.00 0.00 0.00 94 1021.3
20260902121552 16 90 0.0 0.0 0.00 0.00 0.00 94 1021.4
20260902120028 16 101 0.0 0.0 0.00 0.00 0.00 95 1021.4
20260902114512 15 87 0.0 0.0 0.00 0.00 0.00 94 1021.3
20260902113042 15 74 0.0 0.0 0.00 0.00 0.00 94 1021.3
20260902111519 15 144 0.0 0.0 0.00 0.00 0.00 94 1021.1
20260902104537 15 96 0.0 0.0 0.00 0.00 0.00 94 1020.7
20260902103013 15 107 0.0 0.0 0.00 0.00 0.00 94 1020.8
20260902101551 15 90 0.0 0.0 0.00 0.00 0.00 94 1020.8
20260902100034 15 105 0.0 0.0 0.00 0.00 0.00 94 1020.7
20260902094512 15 96 0.0 0.0 0.00 0.00 0.00 94 1020.7
20260902093051 15 103 0.0 0.0 0.00 0.00 0.00 94 1020.5
20260902091527 15 103 0.0 0.0 0.00 0.00 0.00 94 1020.5
20260902090000 15 86 0.0 0.0 0.00 0.00 0.00 94 1020.4
20260902084539 15 105 0.0 0.0 0.00 0.00 0.00 94 1020.3
20260902083034 15 104 0.0 0.0 0.00 0.00 0.00 94 1020.4
20260902081553 15 104 0.0 0.0 0.00 0.00 0.00 93 1020.4
20260902080027 15 104 0.0 0.0 0.00 0.00 0.00 93 1020.1
20260902074501 15 104 0.0 0.0 0.00 0.00 0.00 93 1019.9
20260902073045 15 104 0.0 0.0 0.00 0.00 0.00 93 1019.9
20260902071520 15 104 0.0 0.0 0.00 0.00 0.00 93 1019.8
20260902070047 15 104 0.0 0.0 0.00 0.00 0.00 93 1019.6
20260902064522 16 104 0.0 0.0 0.00 0.00 0.00 93 1019.6
20260902063109 16 104 0.0 0.0 0.00 0.00 0.00 93 1019.8
20260902061544 16 104 0.0 0.0 0.00 0.00 0.00 93 1019.9
20260902060019 16 104 0.0 0.0 0.00 0.00 0.00 93 1019.8
20260902054559 16 104 0.0 0.0 0.00 0.00 0.00 93 1019.7
20260902053033 16 104 0.0 0.0 0.00 0.00 0.00 92 1019.3
20260902051508 16 104 0.0 0.0 0.00 0.00 0.00 91 1019.1
20260902050043 16 104 0.0 0.0 0.00 0.00 0.00 91 1019.0
20260902044530 16 104 0.0 0.0 0.00 0.00 0.00 91 1018.9
20260902043003 16 104 0.0 0.0 0.00 0.00 0.00 91 1018.8
20260902041540 16 104 0.0 0.0 0.00 0.00 0.00 91 1018.7
20260902040012 16 104 0.0 0.0 0.00 0.00 0.00 91 1018.7
20260902034550 16 98 0.0 0.0 0.00 0.00 0.00 91 1018.7
20260902033025 16 97 0.0 0.0 0.00 0.00 0.00 91 1018.6
20260902031602 16 98 0.0 0.0 0.00 0.00 0.00 91 1018.4
20260902030050 16 98 0.0 0.0 0.00 0.00 0.00 91 1018.1
20260902024534 16 98 0.0 0.0 0.00 0.00 0.00 91 1018.1
20260902023030 16 97 0.0 0.0 0.00 0.00 0.00 91 1018.3
20260902021552 16 97 0.0 0.0 0.00 0.00 0.00 91 1018.2
20260902020021 16 98 0.0 0.0 0.00 0.00 0.00 90 1018.1
20260902014505 17 98 0.0 0.0 0.00 0.00 0.00 90 1018.5
20260902013042 17 100 0.0 0.0 0.00 0.00 0.00 90 1018.4
20260902011517 17 100 0.0 0.0 0.00 0.00 0.00 90 1018.2
20260902010055 17 99 0.0 0.0 0.00 0.00 0.00 89 1018.0
20260902004529 17 99 0.0 0.0 0.00 0.00 0.00 89 1018.0